Torna al catalogo

ONEWEB-0636

AttivoComunicazioniPO
NORAD 56077·PAYLOAD·🇬🇧 United Kingdom

Lanciato Mar 26, 2023 da Satish Dhawan Space Centre

Loading…

Prossimi Passaggi (prossime 24 ore)

TLE

AggiornatoSource: CelesTrak SupGP

Epoca: Sep 14, 2026, 14:06 UTC

1 56077C 23043AH  26257.58801343 -.00001547  00000+0 -41139-2 0  2576
2 56077  87.8981 241.3756 0002207  90.2219 309.5705 13.15546323    13

Traccia ONEWEB-0636 in tempo reale con AllMySat

Download on the App Store